TimeEDT,TemperatureF,Dew PointF,Humidity,Sea Level PressureIn,VisibilityMPH,Wind Direction,Wind SpeedMPH,Gust SpeedMPH,PrecipitationIn,Events,Conditions,WindDirDegrees,DateUTC
12:56 AM,75.9,69.1,79,29.87,10.0,NNW,3.5,-,N/A,,Mostly Cloudy,340,2013-07-20 04:56:00
1:56 AM,75.0,70.0,84,29.86,10.0,Calm,Calm,-,N/A,,Mostly Cloudy,0,2013-07-20 05:56:00
2:56 AM,75.0,69.1,82,29.84,10.0,Calm,Calm,-,N/A,,Overcast,0,2013-07-20 06:56:00
3:56 AM,73.9,69.1,85,29.81,10.0,Calm,Calm,-,N/A,,Mostly Cloudy,0,2013-07-20 07:56:00
4:56 AM,73.9,68.0,82,29.84,10.0,NW,6.9,-,N/A,,Scattered Clouds,310,2013-07-20 08:56:00
5:56 AM,75.0,69.1,82,29.85,8.0,WNW,4.6,-,N/A,,Mostly Cloudy,290,2013-07-20 09:56:00
6:56 AM,75.0,69.1,82,29.85,8.0,NNW,3.5,-,N/A,,Overcast,340,2013-07-20 10:56:00
7:56 AM,75.9,69.1,79,29.85,9.0,Calm,Calm,-,N/A,,Overcast,0,2013-07-20 11:56:00
8:56 AM,80.1,70.0,71,29.85,10.0,Calm,Calm,-,N/A,,Mostly Cloudy,0,2013-07-20 12:56:00
9:56 AM,82.0,70.0,67,29.86,10.0,Calm,Calm,-,N/A,,Mostly Cloudy,0,2013-07-20 13:56:00
10:56 AM,84.9,70.0,61,29.83,9.0,West,8.1,-,N/A,,Scattered Clouds,270,2013-07-20 14:56:00
11:56 AM,88.0,70.0,55,29.83,10.0,West,12.7,-,N/A,,Scattered Clouds,260,2013-07-20 15:56:00
12:56 PM,89.1,71.1,55,29.81,10.0,WSW,10.4,18.4,N/A,,Mostly Cloudy,250,2013-07-20 16:56:00
1:56 PM,84.9,71.1,63,29.80,9.0,WSW,13.8,-,N/A,,Mostly Cloudy,250,2013-07-20 17:56:00
2:56 PM,89.1,70.0,53,29.79,10.0,West,4.6,-,N/A,,Mostly Cloudy,270,2013-07-20 18:56:00
3:56 PM,88.0,69.1,53,29.79,10.0,West,12.7,-,N/A,,Mostly Cloudy,270,2013-07-20 19:56:00
4:56 PM,89.1,70.0,53,29.78,10.0,West,9.2,-,N/A,,Mostly Cloudy,260,2013-07-20 20:56:00
5:56 PM,88.0,70.0,55,29.78,10.0,WSW,9.2,-,N/A,,Mostly Cloudy,250,2013-07-20 21:56:00
6:56 PM,86.0,66.9,53,29.79,10.0,WSW,5.8,-,N/A,,Mostly Cloudy,240,2013-07-20 22:56:00
7:56 PM,84.9,66.9,55,29.81,10.0,West,6.9,-,N/A,,Mostly Cloudy,260,2013-07-20 23:56:00
8:56 PM,82.9,64.9,54,29.82,10.0,West,10.4,-,N/A,,Mostly Cloudy,280,2013-07-21 00:56:00
9:56 PM,82.0,64.9,56,29.84,10.0,WNW,9.2,-,N/A,,Mostly Cloudy,300,2013-07-21 01:56:00
10:56 PM,80.1,64.9,60,29.85,10.0,WNW,10.4,-,N/A,,Mostly Cloudy,300,2013-07-21 02:56:00
11:56 PM,79.0,64.9,62,29.86,10.0,NW,4.6,-,N/A,,Scattered Clouds,310,2013-07-21 03:56:00